Location: Buchberg
(46.9333°N, 15.8500°E)
Time: 19:35:01
(UTC+00:00)

Cosmos 1242 Rocket - Pass Details

Date: 14 July 2020
Orbit: 448 x 487 km, 81.2° (Epoch: 06 August)

Event Time Altitude Azimuth Distance (km) Brightness Sun altitude
Rises 01:41:50 0° 352° (N) 2,465 6.9 -12.6°
Reaches altitude 10° 01:43:56 10° 356° (N) 1,589 5.9 -12.4°
Maximum altitude 01:47:22 58° 77° (ENE) 532 3.0 -12.0°
Drops below altitude 10° 01:50:47 10° 157° (SSE) 1,586 4.9 -11.7°
Enters shadow 01:52:24 - 161° (SSE) 2,265 5.7 -11.5°
